Location: Kitt Peak
(31.9639°N, 111.5992°W)
Time: 00:39:56
(UTC-07:00)

OTV 5 (USA 277) - Visible Passes

Search period start: 25 November 2017 00:00
Search period end: 05 December 2017 00:00
Orbit: 404 x 417 km, 43.0° (Epoch: 07 September)

Date Brightness Start Highest point End Pass type
(mag) Time Alt. Az. Time Alt. Az. Time Alt. Az.
28 Nov ? 19:08:33 10° SSW 19:10:16 24° S 19:10:16 24° S visible
29 Nov ? 18:18:08 10° S 18:20:40 20° SE 18:21:56 16° ESE visible
29 Nov ? 19:54:32 10° WSW 19:54:42 11° WSW 19:54:42 11° WSW visible
30 Nov ? 19:03:20 10° WSW 19:06:17 65° W 19:06:17 65° W visible
01 Dec ? 18:12:20 10° SW 18:15:38 60° SE 18:17:49 20° ENE visible
01 Dec ? 19:50:23 10° WNW 19:50:35 11° WNW 19:50:35 11° WNW visible
02 Dec ? 18:58:54 10° W 19:01:57 31° NNW 19:02:02 31° NNW visible
03 Dec ? 18:07:33 10° WSW 18:10:49 47° NNW 18:13:27 14° NE visible
04 Dec ? 18:55:00 10° WNW 18:57:24 18° NNW 18:57:34 18° NNW visible
